This demonstration page uses our WeatherBlox Daily Observations layout. Learn more.

Left ArrowRight Arrow

39.08367, -84.50855

Hourly Observations for April 20, 2021

Temp ( °F °C ) Dew Point ( °F °C ) Humidity (%) Winds ( mph kmh ) Pressure ( in mb ) Visibility ( mi km ) Precip ( " mm )
12:34 am 00:34 Clear 50 10 41 5 71 71 N 16 26 29.97 1015 10 16 N/A
12:53 am 00:53 Clear 49 9.4 40 4.4 71 71 NNE 8 13 29.98 1015 10 16 N/A
1:53 am 01:53 Clear 47 8.3 39 3.9 74 74 N 5 7 29.99 1016 10 16 N/A
2:53 am 02:53 Clear 46 7.8 39 3.9 77 77 N N/A 29.98 1015 10 16 N/A
3:53 am 03:53 Clear 44 6.7 39 3.9 83 83 N N/A 29.98 1015 10 16 N/A
4:53 am 04:53 Clear 42 5.6 38 3.3 85 85 N N/A 30.00 1016 10 16 N/A
5:53 am 05:53 Clear 41 5 38 3.3 89 89 N N/A 30.00 1016 8 13 N/A
6:53 am 06:53 Sunny with Mist and Fog 40 4.4 38 3.3 93 93 N N/A 30.00 1016 6 10 N/A
7:53 am 07:53 Sunny with Mist and Fog 41 5 38 3.3 89 89 E 3 6 30.03 1017 6 10 N/A
8:53 am 08:53 Sunny 46 7.8 39 3.9 77 77 VRB 6 9 30.03 1017 10 16 N/A
9:53 am 09:53 Sunny 50 10 39 3.9 66 66 N 3 6 30.03 1017 10 16 N/A
10:53 am 10:53 Sunny 52 11.1 40 4.4 64 64 N N/A 30.01 1016 10 16 N/A
11:53 am 11:53 Sunny 57 13.9 42 5.6 58 58 SW 8 13 29.98 1015 10 16 N/A
12:53 pm 12:53 Sunny 60 15.6 43 6.1 53 53 VRB 6 9 29.95 1014 10 16 N/A
1:53 pm 13:53 Sunny 62 16.7 42 5.6 48 48 VRB 3 6 29.92 1013 10 16 N/A
2:53 pm 14:53 Partly Cloudy 66 18.9 44 6.7 45 45 W 7 11 29.88 1012 10 16 N/A
3:53 pm 15:53 Partly Cloudy 66 18.9 43 6.1 43 43 VRB 6 9 29.85 1011 10 16 N/A
4:53 pm 16:53 Mostly Cloudy 65 18.3 41 5 42 42 SW 12 19 29.83 1010 10 16 N/A
5:53 pm 17:53 Cloudy with Light Rain 59 15 47 8.3 64 64 N 14 22 29.82 1010 8 13 0.00 0.00
6:00 pm 18:00 Cloudy 58 14.4 47 8.3 67 67 N 14 22 29.83 1010 10 16 0.00 0.00
6:53 pm 18:53 Mostly Cloudy 55 12.8 42 5.6 62 62 N 13 20 29.86 1011 10 16 0.00 0.00
7:53 pm 19:53 Mostly Cloudy 51 10.6 35 1.7 54 54 N 16 26 29.87 1012 10 16 N/A
8:53 pm 20:53 Mostly Cloudy 48 8.9 33 0.6 56 56 NNW 15 24 29.90 1013 10 16 N/A
9:53 pm 21:53 Cloudy with Light Rain 41 5 33 0.6 73 73 N 21 33 29.96 1015 10 16 0.00 0.00
10:53 pm 22:53 Cloudy with Rain 36 2.2 33 0.6 89 89 N 16 26 29.99 1016 6 10 0.13 3.30
11:14 pm 23:14 Cloudy with Light Snow 34 1.1 32 undefined 92 92 N 13 20 30.01 1016 2 3 0.04 1.02
11:30 pm 23:30 Cloudy with Light Rain 34 1.1 32 undefined 92 92 N 12 19 30.01 1016 3 5 0.06 1.52
11:46 pm 23:46 Cloudy with Light Rain 34 1.1 32 undefined 92 92 N 13 20 30.01 1016 10 16 0.08 2.03
11:53 pm 23:53 Cloudy with Light Wintry Mix 34 1.1 32 undefined 92 92 N 9 15 29.98 1015 10 16 0.08 2.03

Powered by AerisWeather